EW4156 Weather Reports


time (UTC)temp
F
wind
direction
speed
knots
gust
knots
rain 1hr
in
rain 24hr
in
rain mn
in
humidity
%
barometer
mb
20260906123033 73 294 0.0 0.0 0.00 0.00 0.00 95 1013.9
20260906121530 73 294 0.0 0.0 0.00 0.06 0.00 96 1013.6
20260906120030 72 294 0.0 0.0 0.00 0.06 0.00 96 1013.4
20260906114530 72 294 0.0 0.0 0.00 0.06 0.00 95 1013.2
20260906113029 72 294 0.0 0.0 0.00 0.06 0.00 95 1013.2
20260906111531 72 293 0.0 0.0 0.00 0.06 0.00 95 1013.2
20260906110032 72 294 0.0 0.9 0.00 0.06 0.00 95 1013.2
20260906104536 72 294 0.0 0.9 0.00 0.06 0.00 96 1013.3
20260906103033 72 294 0.0 0.0 0.00 0.06 0.00 96 1013.0
20260906101531 71 294 0.0 0.0 0.00 0.06 0.00 96 1013.0
20260906100024 72 294 0.0 0.9 0.00 0.06 0.00 96 1013.2
20260906094525 72 146 0.0 0.0 0.00 0.06 0.00 96 1013.3
20260906093024 72 147 0.0 0.9 0.00 0.06 0.00 96 1013.2
20260906091522 72 147 0.0 0.0 0.00 0.06 0.00 96 1013.0
20260906090024 72 146 0.0 0.0 0.00 0.06 0.00 96 1012.9
20260906084519 72 147 0.0 0.9 0.00 0.06 0.00 96 1012.9
20260906083018 72 146 0.0 0.9 0.00 0.06 0.00 96 1012.7
20260906081516 72 147 0.0 0.0 0.00 0.06 0.00 95 1012.7
20260906080016 72 146 0.0 0.9 0.00 0.06 0.00 95 1012.7
20260906074514 72 147 0.0 0.0 0.00 0.06 0.00 94 1012.6
20260906073020 72 147 0.0 0.0 0.00 0.06 0.00 94 1012.7
20260906071512 72 147 0.0 0.9 0.00 0.06 0.00 94 1012.7
20260906070011 72 145 0.0 0.0 0.00 0.06 0.00 93 1012.8
20260906064509 72 145 0.0 0.0 0.00 0.06 0.00 93 1012.7
20260906063007 73 145 0.0 0.9 0.00 0.06 0.00 93 1013.0
20260906061506 73 226 0.0 0.9 0.00 0.06 0.00 92 1013.0
20260906060002 73 226 0.0 0.9 0.00 0.06 0.00 91 1013.3
20260906054502 73 228 0.0 0.9 0.00 0.06 0.00 91 1013.3
20260906053001 73 228 0.0 0.0 0.00 0.06 0.00 90 1013.3
20260906051600 74 228 0.0 0.0 0.00 0.06 0.00 90 1013.5
20260906050120 73 228 0.0 0.9 0.00 0.06 0.00 90 1013.5
20260906044556 73 228 0.0 0.0 0.00 0.06 0.00 91 1013.4
20260906043058 73 228 0.0 0.9 0.00 0.06 0.00 91 1013.5
20260906041555 73 228 0.0 0.0 0.00 0.06 0.00 91 1013.4
20260906040058 74 228 0.0 0.9 0.00 0.06 0.00 91 1013.4
20260906034552 73 228 0.0 0.9 0.00 0.06 0.06 91 1013.5
20260906033102 73 228 0.0 0.0 0.00 0.06 0.06 92 1013.5
20260906031550 73 228 0.0 0.0 0.00 0.06 0.06 92 1014.0
20260906030050 73 228 0.0 0.9 0.00 0.06 0.06 92 1014.1
20260906024552 73 228 0.0 0.9 0.00 0.06 0.06 94 1014.1
20260906023049 73 228 0.0 0.9 0.00 0.06 0.06 95 1014.3
20260906021553 73 228 0.0 0.9 0.00 0.06 0.06 95 1014.3
20260906020053 73 226 0.0 0.0 0.00 0.06 0.06 95 1014.1
20260906014555 73 226 0.0 0.9 0.00 0.06 0.06 95 1014.0
20260906013049 74 226 0.0 0.9 0.00 0.06 0.06 95 1013.8
20260906011546 74 226 0.0 0.0 0.00 0.06 0.06 95 1013.7
20260906010045 74 226 0.0 0.9 0.00 0.06 0.06 94 1013.3
20260906004545 73 243 0.9 1.7 0.00 0.06 0.06 94 1012.8
20260906003045 73 232 0.0 1.7 0.00 0.06 0.06 94 1012.5
20260906001545 73 247 0.0 1.7 0.00 0.06 0.06 94 1012.3
20260906000044 73 122 0.0 2.6 0.00 0.06 0.06 93 1011.8
20260905234545 72 339 0.0 0.9 0.02 0.06 0.06 94 1010.6
20260905233043 72 122 0.0 0.9 0.06 0.06 0.06 93 1010.3
20260905231544 72 126 0.9 2.6 0.06 0.06 0.06 92 1011.5
20260905230053 73 105 3.5 11.3 0.06 0.06 0.06 90 1012.2
20260905224535 77 93 7.0 23.5 0.04 0.04 0.04 86 1012.8
20260905223035 91 94 5.2 11.3 0.00 0.00 0.00 57 1012.1
20260905221536 99 285 0.9 3.5 0.00 0.00 0.00 46 1010.8
20260905220032 100 326 0.9 2.6 0.00 0.00 0.00 46 1010.6
20260905214535 100 269 0.0 1.7 0.00 0.00 0.00 45 1010.5
20260905213030 99 22 0.0 1.7 0.00 0.00 0.00 47 1010.5
20260905211536 98 269 0.0 2.6 0.00 0.00 0.00 49 1010.6
20260905210025 99 239 0.0 1.7 0.00 0.00 0.00 49 1011.0
20260905204522 98 302 0.9 3.5 0.00 0.00 0.00 49 1011.2
20260905203020 98 17 0.0 4.3 0.00 0.00 0.00 47 1011.4
20260905201517 97 293 0.9 3.5 0.00 0.00 0.00 48 1011.5
20260905200015 97 3 0.0 2.6 0.00 0.00 0.00 48 1011.8
20260905194510 96 60 0.0 2.6 0.00 0.00 0.00 50 1012.0
20260905193007 95 66 0.9 3.5 0.00 0.00 0.00 50 1012.1
20260905191506 95 116 1.7 3.5 0.00 0.00 0.00 51 1012.2
20260905190002 94 188 0.0 1.7 0.00 0.00 0.00 52 1012.6
20260905184603 94 305 0.9 3.5 0.00 0.00 0.00 52 1012.8
20260905183100 94 285 0.9 2.6 0.00 0.00 0.00 53 1013.1
20260905181554 93 112 0.9 6.1 0.00 0.00 0.00 53 1013.2
20260905180051 93 112 2.6 4.3 0.00 0.00 0.00 54 1013.4
20260905174548 93 114 0.9 4.3 0.00 0.00 0.00 55 1013.5
20260905173045 93 273 0.0 3.5 0.00 0.00 0.00 56 1013.8
20260905171541 92 295 0.9 4.3 0.00 0.00 0.00 57 1014.0
20260905170038 92 291 0.9 4.3 0.00 0.00 0.00 59 1014.0
20260905164536 91 110 0.9 5.2 0.00 0.00 0.00 59 1014.3
20260905163033 91 305 0.0 5.2 0.00 0.00 0.00 59 1014.5
20260905161531 90 297 0.9 5.2 0.00 0.00 0.00 61 1014.7
20260905160029 90 118 0.0 4.3 0.00 0.00 0.00 61 1014.9
20260905154525 89 122 0.0 2.6 0.00 0.00 0.00 62 1015.0
20260905153024 88 37 0.0 2.6 0.00 0.00 0.00 65 1015.1
20260905151520 87 240 0.0 1.7 0.00 0.00 0.00 67 1015.2
20260905150017 86 355 0.0 2.6 0.00 0.00 0.00 69 1015.2
20260905144517 86 282 0.0 2.6 0.00 0.00 0.00 69 1015.2
20260905143011 85 273 0.0 1.7 0.00 0.00 0.00 72 1015.4
20260905141509 83 278 0.0 2.6 0.00 0.00 0.00 74 1015.5
20260905140005 82 280 0.0 1.7 0.00 0.00 0.00 76 1015.5
20260905134601 81 13 0.0 0.9 0.00 0.00 0.00 77 1015.5
20260905133058 80 296 0.9 2.6 0.00 0.00 0.00 81 1015.7
20260905131558 79 328 0.0 0.9 0.00 0.00 0.00 84 1015.9
20260905130057 78 107 0.0 0.9 0.00 0.00 0.00 86 1015.9
20260905124557 77 108 0.0 0.9 0.00 0.00 0.00 87 1015.8